Location: Aero Crafter Incorporated Heliport
(33.1248°N, 96.5222°W)
Time: 11:04:16
(UTC+00:00)

Cosmos 1302 Rocket - Pass Details

Date: 18 November 2025
Orbit: 752 x 772 km, 74.0° (Epoch: 07 December)

Event Time Altitude Azimuth Distance (km) Brightness Sun altitude
Rises 12:22:33 0° 215° (SW) 3,187 7.0 -8.2°
Reaches altitude 10° 12:25:03 10° 223° (SW) 2,266 6.2 -7.7°
Maximum altitude 12:29:49 38° 291° (WNW) 1,134 4.4 -6.7°
Drops below altitude 10° 12:34:37 10° 360° (N) 2,281 6.3 -5.8°
Sets 12:37:09 0° 8° (N) 3,211 7.1 -5.3°
